Location: Limoges
(45.8500°N, 1.2500°E)
Time: 23:33:28
(UTC+01:00)

ISS - Visible Passes

Search period start: 19 January 2019 00:00
Search period end: 29 January 2019 00:00
Orbit: 404 x 411 km, 51.6° (Epoch: 19 January)

Date Brightness Start Highest point End Pass type
(mag) Time Alt. Az. Time Alt. Az. Time Alt. Az.
21 Jan -0.8 20:18:29 10° SW 20:18:48 12° SSW 20:18:48 12° SSW visible
22 Jan -2.2 19:27:39 10° SSW 19:29:54 23° SSE 19:29:54 23° SSE visible
23 Jan -1.6 18:37:21 10° SSE 18:39:12 14° SE 18:40:55 10° ESE visible
23 Jan -1.8 20:11:59 10° WSW 20:13:39 27° WSW 20:13:39 27° WSW visible
24 Jan -3.5 19:20:43 10° SW 19:23:56 52° SE 19:24:35 43° ESE visible
25 Jan -2.6 18:29:41 10° SSW 18:32:38 30° SE 18:35:26 11° ENE visible
25 Jan -2.4 20:05:49 10° W 20:08:09 38° WNW 20:08:09 38° WNW visible
26 Jan -3.8 19:14:17 10° WSW 19:17:35 77° NNW 19:18:57 33° NE visible
26 Jan -0.3 20:51:29 10° WNW 20:51:40 11° WNW 20:51:40 11° WNW visible
27 Jan -3.7 18:22:54 10° SW 18:26:10 67° SSE 18:29:27 10° ENE visible
27 Jan -2.4 19:59:48 10° W 20:02:23 33° NW 20:02:23 33° NW visible
28 Jan -3.1 19:08:07 10° W 19:11:18 44° NNW 19:13:04 22° NE visible
28 Jan -0.5 20:45:25 10° WNW 20:45:47 12° WNW 20:45:47 12° WNW visible
